Weather History for Goldsboro, NC

Change the Weather History Date:

Thursday, December 27, 2012

  Actual Average (KGSB) Record (KGSB)
Temperature  
Mean Temperature 43 °F -  
Max Temperature 50 °F 51 °F 64 °F (2011)
Min Temperature 36 °F 32 °F 21 °F (2004)
Degree Days  
Heating Degree Days 22    
Moisture  
Dew Point 33 °F    
Average Humidity 68    
Maximum Humidity 87    
Minimum Humidity 49    
Precipitation  
Precipitation 0.00 in - - ()
Sea Level Pressure  
Sea Level Pressure 29.89 in    
Wind  
Wind Speed 10 mph (West)    
Max Wind Speed 18 mph    
Max Gust Speed 25 mph    
Visibility 10 miles    
Events      
Averages and records for this station are not official NWS values.
T = Trace of Precipitation, MM = Missing Value Source: NWS Daily Summary

Daily Weather History Graph

Daily Weather History Graph

Search for Another Location

Airport:

Trip Planner

Search our weather history database for the weather conditions in past years. The results will help you decide how hot, cold, wet, or windy it might be!

Date:

Astronomy

Dec. 27, 2012 Rise Set
Actual Time 7:19 AM EST 5:06 PM EST
Civil Twilight 6:51 AM EST 5:34 PM EST
Nautical Twilight 6:19 AM EST 6:06 PM EST
Astronomical Twilight 5:48 AM EST 6:37 PM EST
Moon 4:47 PM EST (12/27) 6:30 AM EST (12/27)
Length of Visible Light 10h 43m
Length of Day
9h 46m
Full, 100% of the Moon is Illuminated
Dec 27
Full
Dec 28
Full
Jan 4
Last Quarter
Jan 11
New
Jan 18
First Quarter

Hourly Weather History & Observations

Time (EST) Temp. Windchill Dew Point Humidity Pressure Visibility Wind Dir Wind Speed Gust Speed Precip Events Conditions
12:15 AM 45.0 °F 39.7 °F 41.4 °F 87% 29.64 in 10.0 mi West 10.4 mph - N/A   Scattered Clouds
12:35 AM 44.8 °F 38.7 °F 41.0 °F 87% 29.64 in 10.0 mi WSW 12.7 mph 19.6 mph N/A   Clear
12:55 AM 44.6 °F 37.8 °F 40.6 °F 86% 29.64 in 10.0 mi WSW 15.0 mph 18.4 mph N/A   Clear
1:15 AM 44.2 °F 38.4 °F 39.6 °F 84% 29.65 in 10.0 mi WSW 11.5 mph 19.6 mph N/A   Clear
1:55 AM 44.1 °F 37.1 °F 38.3 °F 80% 29.67 in 10.0 mi WSW 15.0 mph 24.2 mph N/A   Clear
2:15 AM 43.7 °F 37.3 °F 37.8 °F 80% 29.68 in 10.0 mi West 12.7 mph 21.9 mph N/A   Clear
2:55 AM 42.8 °F 36.2 °F 36.5 °F 78% 29.69 in 10.0 mi West 12.7 mph 19.6 mph N/A   Clear
3:15 AM 42.4 °F 36.5 °F 35.8 °F 77% 29.70 in 10.0 mi West 10.4 mph - N/A   Clear
3:55 AM 41.5 °F 35.9 °F 35.1 °F 78% 29.70 in 10.0 mi WSW 9.2 mph - N/A   Clear
4:15 AM 41.4 °F 34.7 °F 35.6 °F 80% 29.71 in 10.0 mi West 11.5 mph 16.1 mph N/A   Clear
4:55 AM 41.0 °F 35.2 °F 35.6 °F 81% 29.72 in 10.0 mi WSW 9.2 mph - N/A   Clear
5:15 AM 40.5 °F 33.2 °F 35.1 °F 81% 29.73 in 10.0 mi WSW 12.7 mph - N/A   Clear
5:35 AM 40.3 °F 33.0 °F 34.5 °F 80% 29.75 in 10.0 mi WSW 12.7 mph - N/A   Clear
5:55 AM 40.1 °F 34.1 °F 34.0 °F 79% 29.76 in 10.0 mi West 9.2 mph - N/A   Clear
6:15 AM 39.6 °F 33.0 °F 33.4 °F 79% 29.76 in 10.0 mi West 10.4 mph - N/A   Clear
6:35 AM 39.2 °F 31.6 °F 33.3 °F 79% 29.77 in 10.0 mi West 12.7 mph 17.3 mph N/A   Clear
6:55 AM 39.2 °F 33.0 °F 32.9 °F 78% 29.78 in 10.0 mi WSW 9.2 mph - N/A   Clear
7:35 AM 38.8 °F 31.6 °F 32.0 °F 76% 29.80 in 10.0 mi West 11.5 mph - N/A   Clear
7:55 AM 39.4 °F 33.2 °F 32.0 °F 75% 29.81 in 10.0 mi West 9.2 mph 16.1 mph N/A   Clear
8:15 AM 40.1 °F 33.2 °F 32.0 °F 73% 29.83 in 10.0 mi West 11.5 mph 17.3 mph N/A   Clear
8:35 AM 40.6 °F 34.3 °F 32.0 °F 71% 29.84 in 10.0 mi West 10.4 mph 18.4 mph N/A   Clear
8:55 AM 41.5 °F 34.6 °F 32.0 °F 69% 29.86 in 10.0 mi West 12.7 mph 18.4 mph N/A   Clear
9:15 AM 42.1 °F 36.6 °F 32.0 °F 67% 29.87 in 10.0 mi West 9.2 mph 19.6 mph N/A   Clear
9:35 AM 43.2 °F 37.4 °F 32.0 °F 65% 29.88 in 10.0 mi West 10.4 mph 24.2 mph N/A   Clear
9:55 AM 43.7 °F 38.1 °F 32.0 °F 63% 29.90 in 10.0 mi West 10.4 mph 23.0 mph N/A   Clear
10:15 AM 44.4 °F 37.2 °F 31.8 °F 61% 29.91 in 10.0 mi West 16.1 mph 25.3 mph N/A   Clear
10:35 AM 45.0 °F 37.9 °F 31.6 °F 60% 29.92 in 10.0 mi West 16.1 mph 23.0 mph N/A   Clear
10:55 AM 46.0 °F 41.9 °F 32.0 °F 58% 29.92 in 10.0 mi WNW 8.1 mph 24.2 mph N/A   Clear
11:15 AM 46.4 °F 40.1 °F 31.1 °F 55% 29.92 in 10.0 mi WNW 15.0 mph 23.0 mph N/A   Clear
11:35 AM 47.3 °F - 30.6 °F 52% 29.91 in 10.0 mi WNW 15.0 mph 21.9 mph N/A   Clear
11:55 AM 47.1 °F - 30.6 °F 53% 29.90 in 10.0 mi NW 15.0 mph 25.3 mph N/A   Clear
12:15 PM 47.8 °F - 30.9 °F 52% 29.89 in 10.0 mi West 11.5 mph 21.9 mph N/A   Clear
12:35 PM 48.4 °F - 31.3 °F 52% 29.89 in 10.0 mi WNW 18.4 mph 25.3 mph N/A   Clear
12:55 PM 48.6 °F - 30.9 °F 51% 29.90 in 10.0 mi WNW 12.7 mph 23.0 mph N/A   Clear
1:15 PM 48.6 °F - 31.1 °F 51% 29.89 in 10.0 mi WNW 13.8 mph 25.3 mph N/A   Clear
1:35 PM 49.3 °F - 31.3 °F 50% 29.90 in 10.0 mi WNW 13.8 mph 19.6 mph N/A   Clear
1:55 PM 49.5 °F - 31.1 °F 49% 29.90 in 10.0 mi West 13.8 mph 21.9 mph N/A   Clear
2:15 PM 49.3 °F - 31.1 °F 50% 29.91 in 10.0 mi West 12.7 mph 20.7 mph N/A   Clear
2:35 PM 50.0 °F - 31.3 °F 49% 29.92 in 10.0 mi WNW 11.5 mph 18.4 mph N/A   Clear
2:55 PM 49.8 °F - 31.3 °F 49% 29.91 in 10.0 mi West 9.2 mph 19.6 mph N/A   Clear
3:15 PM 49.8 °F - 31.5 °F 49% 29.92 in 10.0 mi West 12.7 mph 19.6 mph N/A   Clear
3:35 PM 50.0 °F - 31.3 °F 49% 29.93 in 10.0 mi WNW 9.2 mph 18.4 mph N/A   Clear
3:55 PM 49.5 °F - 31.6 °F 50% 29.94 in 10.0 mi West 9.2 mph 17.3 mph N/A   Clear
4:15 PM 48.9 °F - 31.6 °F 51% 29.95 in 10.0 mi WNW 8.1 mph 16.1 mph N/A   Clear
4:35 PM 47.5 °F - 31.8 °F 55% 29.95 in 10.0 mi West 6.9 mph - N/A   Clear
4:55 PM 46.4 °F 44.3 °F 32.0 °F 57% 29.96 in 10.0 mi West 4.6 mph - N/A   Clear
5:15 PM 45.5 °F - 32.0 °F 59% 29.97 in 10.0 mi Calm Calm - N/A   Clear
5:35 PM 42.4 °F - 32.5 °F 68% 29.98 in 10.0 mi Calm Calm - N/A   Clear
5:55 PM 39.7 °F 37.6 °F 34.0 °F 80% 29.99 in 10.0 mi WNW 3.5 mph - N/A   Clear
6:15 PM 38.5 °F - 33.1 °F 81% 30.00 in 10.0 mi Calm Calm - N/A   Clear
6:35 PM 38.3 °F - 33.6 °F 83% 30.00 in 10.0 mi Calm Calm - N/A   Clear
6:55 PM 37.6 °F 35.1 °F 33.4 °F 85% 30.01 in 10.0 mi West 3.5 mph - N/A   Clear
7:15 PM 36.7 °F 32.9 °F 33.1 °F 87% 30.01 in 10.0 mi West 4.6 mph - N/A   Clear
7:35 PM 39.2 °F 37.0 °F 32.7 °F 78% 30.02 in 10.0 mi West 3.5 mph - N/A   Clear
8:15 PM 40.6 °F 37.5 °F 32.0 °F 71% 30.02 in 10.0 mi WNW 4.6 mph - N/A   Clear
8:35 PM 41.0 °F 38.0 °F 32.0 °F 70% 30.03 in 10.0 mi WNW 4.6 mph - N/A   Clear
8:55 PM 41.2 °F 38.2 °F 31.6 °F 69% 30.04 in 10.0 mi NW 4.6 mph - N/A   Clear
9:15 PM 41.0 °F 37.1 °F 31.1 °F 68% 30.05 in 10.0 mi NW 5.8 mph - N/A   Clear
9:35 PM 40.5 °F 36.5 °F 30.6 °F 68% 30.05 in 10.0 mi NW 5.8 mph - N/A   Clear
9:55 PM 39.9 °F 35.8 °F 30.6 °F 69% 30.06 in 10.0 mi NW 5.8 mph - N/A   Clear
10:15 PM 39.2 °F 35.0 °F 30.0 °F 70% 30.07 in 10.0 mi NW 5.8 mph - N/A   Clear
10:35 PM 38.3 °F 33.2 °F 30.0 °F 72% 30.07 in 10.0 mi NNW 6.9 mph - N/A   Clear
10:55 PM 38.1 °F 34.6 °F 28.9 °F 70% 30.07 in 10.0 mi NNW 4.6 mph - N/A   Clear
11:15 PM 37.4 °F 31.4 °F 28.4 °F 70% 30.06 in 10.0 mi North 8.1 mph - N/A   Clear
11:35 PM 37.2 °F 31.9 °F 28.2 °F 70% 30.07 in 10.0 mi North 6.9 mph - N/A   Clear
11:55 PM 36.5 °F 32.7 °F 27.9 °F 71% 30.07 in 10.0 mi North 4.6 mph - N/A   Clear